Orlando, FL

3:55 AM EST on December 04, 2016 (GMT -0500)
Orlando International

Weather History for KMCO - September, 2011

Change the Weather History Date:

Saturday, September 17, 2011

  Actual Average Record
Temperature  
Mean Temperature 82 °F 81 °F  
Max Temperature 91 °F 90 °F 98 °F (1988)
Min Temperature 73 °F 73 °F 61 °F (1932)
Degree Days  
Heating Degree Days 0 0  
Month to date heating degree days 0 0  
Since 1 July heating degree days 0 0  
Cooling Degree Days 17 16  
Month to date cooling degree days 279 285  
Year to date cooling degree days 3014 2678  
Growing Degree Days 32 (Base 50)    
Moisture  
Dew Point 71 °F    
Average Humidity 72    
Maximum Humidity 100    
Minimum Humidity 44    
Precipitation  
Precipitation 0.00 in 0.20 in 4.15 in (1961)
Month to date precipitation 2.36 3.60  
Year to date precipitation 43.59 40.21  
Sea Level Pressure  
Sea Level Pressure 30.07 in    
Wind  
Wind Speed 7 mph (NE)    
Max Wind Speed 14 mph    
Max Gust Speed 16 mph    
Visibility 10 miles    
Events      
T = Trace of Precipitation, MM = Missing Value Source: NWS Daily Summary

Daily Weather History Graph

Daily Weather History Graph

Search for Another Location

Airport or City:

Trip Planner

Search our weather history database for the weather conditions in past years. The results will help you decide how hot, cold, wet, or windy it might be!

Date:

Astronomy

Sep. 17, 2011 Rise Set
Actual Time 7:11 AM EDT 7:28 PM EDT
Civil Twilight 6:47 AM EDT 7:51 PM EDT
Nautical Twilight 6:19 AM EDT 8:19 PM EDT
Astronomical Twilight 5:52 AM EDT 8:46 PM EDT
Moon 10:28 PM EDT (9/17) 11:41 AM EDT (9/17)
Length of Visible Light 13h 04m
Length of Day
12h 16m
Waning Gibbous, 77% of the Moon is Illuminated
Sep 17
Waning Gibbous
Sep 20
Last Quarter
Sep 27
New
Oct 3
First Quarter
Oct 11
Full

Hourly Weather History & Observations

Time (EDT) Temp. Heat Index Dew Point Humidity Pressure Visibility Wind Dir Wind Speed Gust Speed Precip Events Conditions
12:53 AM 75.9 °F - 72.0 °F 87% 30.09 in 10.0 mi Calm Calm - N/A   Mostly Cloudy
1:53 AM 78.1 °F - 73.0 °F 84% 30.08 in 10.0 mi Calm Calm - N/A   Mostly Cloudy
2:53 AM 75.9 °F - 73.0 °F 91% 30.06 in 10.0 mi Calm Calm - N/A   Mostly Cloudy
3:53 AM 73.9 °F - 72.0 °F 93% 30.04 in 10.0 mi Calm Calm - N/A   Mostly Cloudy
4:53 AM 75.0 °F - 72.0 °F 90% 30.05 in 10.0 mi Calm Calm - N/A   Mostly Cloudy
5:53 AM 75.0 °F - 72.0 °F 90% 30.06 in 10.0 mi Calm Calm - N/A   Mostly Cloudy
6:53 AM 73.9 °F - 73.0 °F 97% 30.08 in 10.0 mi NNE 4.6 mph - N/A   Mostly Cloudy
7:53 AM 75.0 °F - 73.0 °F 94% 30.09 in 10.0 mi North 3.5 mph - N/A   Mostly Cloudy
8:53 AM 79.0 °F - 73.0 °F 82% 30.10 in 10.0 mi North 8.1 mph - N/A   Partly Cloudy
9:53 AM 82.0 °F 86.7 °F 72.0 °F 71% 30.11 in 10.0 mi NNE 6.9 mph - N/A   Partly Cloudy
10:53 AM 84.9 °F 90.1 °F 71.1 °F 63% 30.12 in 10.0 mi NE 8.1 mph - N/A   Scattered Clouds
11:53 AM 86.0 °F 90.7 °F 70.0 °F 59% 30.12 in 10.0 mi ENE 8.1 mph - N/A   Partly Cloudy
12:53 PM 88.0 °F 92.1 °F 69.1 °F 53% 30.10 in 10.0 mi East 10.4 mph - N/A   Partly Cloudy
1:53 PM 88.0 °F 91.4 °F 68.0 °F 51% 30.08 in 10.0 mi ENE 10.4 mph - N/A   Scattered Clouds
2:53 PM 90.0 °F 91.3 °F 64.0 °F 42% 30.05 in 10.0 mi ENE 8.1 mph - N/A   Scattered Clouds
3:53 PM 89.1 °F 92.9 °F 68.0 °F 50% 30.03 in 10.0 mi NE 10.4 mph 16.1 mph N/A   Partly Cloudy
4:53 PM 89.1 °F 90.3 °F 64.0 °F 43% 30.03 in 10.0 mi ENE 10.4 mph - N/A   Partly Cloudy
5:53 PM 87.1 °F 90.6 °F 68.0 °F 53% 30.03 in 10.0 mi ENE 13.8 mph - N/A   Partly Cloudy
6:53 PM 84.0 °F 87.8 °F 69.1 °F 61% 30.04 in 10.0 mi ENE 11.5 mph - N/A   Partly Cloudy
7:53 PM 81.0 °F 84.9 °F 71.1 °F 72% 30.06 in 10.0 mi ENE 10.4 mph - N/A   Partly Cloudy
8:53 PM 80.1 °F 83.8 °F 72.0 °F 76% 30.08 in 10.0 mi NE 10.4 mph - N/A   Partly Cloudy
9:53 PM 79.0 °F - 73.0 °F 82% 30.10 in 10.0 mi NNE 12.7 mph - N/A   Mostly Cloudy
10:53 PM 78.1 °F - 73.0 °F 84% 30.10 in 10.0 mi NNE 10.4 mph - N/A   Scattered Clouds
11:53 PM 77.0 °F - 73.0 °F 88% 30.09 in 10.0 mi NNE 9.2 mph - N/A   Partly Cloudy